| time (UTC) | temp C | wind direction | speed KPH | gust KPH | rain 1hr cm | rain 24hr cm | rain mn cm | humidity % | barometer mb |
| 20260505064659 | 20 | 180 | 0.0 | 1.6 | 0.00 | 0.23 | 0.00 | 53 | 1017.7 |
| 20260505064159 | 20 | 180 | 0.0 | 1.6 | 0.00 | 0.23 | 0.00 | 53 | 1017.6 |
| 20260505063659 | 20 | 180 | 0.0 | 1.6 | 0.00 | 0.23 | 0.00 | 53 | 1017.6 |
| 20260505063201 | 20 | 180 | 0.0 | 1.6 | 0.00 | 0.23 | 0.00 | 52 | 1017.7 |
| 20260505062702 | 20 | 180 | 0.0 | 1.6 | 0.00 | 0.23 | 0.00 | 52 | 1017.7 |
| 20260505062203 | 20 | 180 | 0.0 | 1.6 | 0.00 | 0.23 | 0.00 | 52 | 1017.5 |
| 20260505061704 | 20 | 180 | 0.0 | 1.6 | 0.00 | 0.23 | 0.00 | 52 | 1017.4 |
| 20260505061204 | 21 | 180 | 0.0 | 0.0 | 0.00 | 0.23 | 0.00 | 51 | 1017.5 |
| 20260505060705 | 21 | 180 | 0.0 | 0.0 | 0.00 | 0.23 | 0.00 | 50 | 1017.6 |
| 20260505060205 | 21 | 180 | 0.0 | 1.6 | 0.00 | 0.23 | 0.00 | 49 | 1017.6 |
| 20260505055707 | 21 | 180 | 0.0 | 1.6 | 0.00 | 0.23 | 0.00 | 49 | 1017.6 |
| 20260505055208 | 21 | 180 | 0.0 | 1.6 | 0.00 | 0.23 | 0.00 | 49 | 1017.5 |
| 20260505054703 | 21 | 180 | 0.0 | 3.2 | 0.00 | 0.23 | 0.00 | 48 | 1017.3 |
| 20260505052652 | 21 | 225 | 0.0 | 1.6 | 0.00 | 0.23 | 0.00 | 42 | 1017.3 |
| 20260505051644 | 21 | 225 | 0.0 | 0.0 | 0.00 | 0.23 | 0.00 | 43 | 1017.1 |
| 20260505050638 | 21 | 180 | 0.0 | 1.6 | 0.00 | 0.23 | 0.00 | 42 | 1017.2 |
| 20260505041340 | 22 | 225 | 0.0 | 1.6 | 0.00 | 0.23 | 0.00 | 45 | 1017.1 |
| 20260505040842 | 22 | 225 | 0.0 | 1.6 | 0.00 | 0.23 | 0.00 | 44 | 1017.1 |
| 20260505040343 | 22 | 225 | 0.0 | 3.2 | 0.00 | 0.23 | 0.00 | 47 | 1017.0 |
| 20260505035838 | 22 | 225 | 0.0 | 1.6 | 0.00 | 0.23 | 0.00 | 46 | 1017.0 |
| 20260505033330 | 21 | 225 | 0.0 | 1.6 | 0.00 | 0.23 | 0.00 | 47 | 1017.0 |
| 20260505032832 | 21 | 225 | 1.6 | 3.2 | 0.00 | 0.23 | 0.00 | 46 | 1017.0 |
| 20260505032333 | 21 | 225 | 0.0 | 3.2 | 0.00 | 0.23 | 0.00 | 47 | 1017.1 |
| 20260505031834 | 21 | 225 | 1.6 | 3.2 | 0.00 | 0.23 | 0.00 | 47 | 1017.1 |
| 20260505031334 | 21 | 225 | 0.0 | 3.2 | 0.00 | 0.23 | 0.00 | 46 | 1017.1 |
| 20260505030829 | 21 | 180 | 1.6 | 4.8 | 0.00 | 0.23 | 0.00 | 49 | 1017.2 |
| 20260505025827 | 21 | 225 | 0.0 | 1.6 | 0.00 | 0.23 | 0.00 | 49 | 1017.4 |
| 20260505025322 | 22 | 225 | 0.0 | 1.6 | 0.00 | 0.23 | 0.00 | 48 | 1017.6 |
| 20260505003228 | 19 | 225 | 0.0 | 1.6 | 0.00 | 0.23 | 0.00 | 54 | 1019.1 |
| 20260505002730 | 19 | 225 | 1.6 | 3.2 | 0.00 | 0.23 | 0.00 | 55 | 1019.2 |
| 20260505002231 | 19 | 225 | 0.0 | 1.6 | 0.00 | 0.23 | 0.00 | 56 | 1019.2 |
| 20260505001732 | 19 | 180 | 1.6 | 3.2 | 0.00 | 0.23 | 0.00 | 55 | 1019.3 |
| 20260505001233 | 19 | 203 | 1.6 | 3.2 | 0.00 | 0.23 | 0.00 | 55 | 1019.3 |
| 20260505000733 | 19 | 225 | 0.0 | 3.2 | 0.00 | 0.23 | 0.00 | 55 | 1019.3 |
| 20260505000234 | 19 | 225 | 0.0 | 3.2 | 0.00 | 0.23 | 0.00 | 54 | 1019.2 |
| 20260504235736 | 19 | 225 | 0.0 | 1.6 | 0.00 | 0.23 | 0.00 | 53 | 1019.2 |
| 20260504235237 | 19 | 225 | 0.0 | 1.6 | 0.00 | 0.23 | 0.00 | 51 | 1019.1 |
| 20260504234737 | 20 | 225 | 1.6 | 4.8 | 0.00 | 0.23 | 0.00 | 51 | 1019.0 |
| 20260504234238 | 20 | 225 | 3.2 | 6.4 | 0.00 | 0.23 | 0.00 | 52 | 1019.2 |
| 20260504233738 | 19 | 225 | 3.2 | 6.4 | 0.00 | 0.23 | 0.00 | 52 | 1019.3 |
| 20260504233240 | 19 | 225 | 3.2 | 8.0 | 0.00 | 0.23 | 0.00 | 54 | 1019.3 |
| 20260504232741 | 18 | 225 | 0.0 | 1.6 | 0.00 | 0.23 | 0.00 | 58 | 1019.3 |
| 20260504232242 | 18 | 225 | 0.0 | 1.6 | 0.00 | 0.23 | 0.00 | 60 | 1019.4 |
| 20260504231742 | 18 | 225 | 1.6 | 4.8 | 0.00 | 0.23 | 0.00 | 58 | 1019.3 |
| 20260504231243 | 18 | 225 | 1.6 | 4.8 | 0.00 | 0.23 | 0.00 | 61 | 1019.3 |
| 20260504230745 | 17 | 225 | 3.2 | 9.7 | 0.00 | 0.23 | 0.00 | 62 | 1019.4 |
| 20260504230240 | 17 | 225 | 1.6 | 3.2 | 0.00 | 0.23 | 0.00 | 66 | 1019.4 |
| 20260504225234 | 17 | 225 | 3.2 | 6.4 | 0.00 | 0.23 | 0.23 | 69 | 1019.4 |
| 20260504224736 | 17 | 225 | 1.6 | 3.2 | 0.00 | 0.23 | 0.23 | 71 | 1019.5 |
| 20260504224237 | 17 | 225 | 0.0 | 3.2 | 0.00 | 0.23 | 0.23 | 74 | 1019.4 |
| 20260504223738 | 17 | 225 | 1.6 | 3.2 | 0.00 | 0.23 | 0.23 | 75 | 1019.4 |
| 20260504223239 | 16 | 225 | 1.6 | 3.2 | 0.00 | 0.23 | 0.23 | 77 | 1019.4 |
| 20260504222739 | 16 | 225 | 1.6 | 6.4 | 0.00 | 0.23 | 0.23 | 77 | 1019.3 |
| 20260504222239 | 16 | 180 | 3.2 | 4.8 | 0.00 | 0.23 | 0.23 | 76 | 1019.3 |
| 20260504221740 | 16 | 203 | 3.2 | 4.8 | 0.03 | 0.23 | 0.23 | 75 | 1019.2 |
| 20260504221242 | 16 | 180 | 0.0 | 1.6 | 0.03 | 0.23 | 0.23 | 74 | 1019.0 |
| 20260504220743 | 16 | 225 | 3.2 | 4.8 | 0.03 | 0.23 | 0.23 | 73 | 1018.9 |
| 20260504220244 | 16 | 225 | 0.0 | 3.2 | 0.03 | 0.23 | 0.23 | 72 | 1018.7 |
| 20260504215744 | 16 | 270 | 4.8 | 11.3 | 0.03 | 0.23 | 0.23 | 73 | 1018.8 |
| 20260504215245 | 16 | 180 | 8.0 | 9.7 | 0.03 | 0.23 | 0.23 | 76 | 1018.7 |
| 20260504214747 | 16 | 225 | 3.2 | 6.4 | 0.03 | 0.23 | 0.23 | 78 | 1018.5 |
| 20260504214248 | 16 | 225 | 3.2 | 8.0 | 0.03 | 0.23 | 0.23 | 79 | 1018.6 |
| 20260504213749 | 16 | 225 | 1.6 | 3.2 | 0.03 | 0.23 | 0.23 | 81 | 1018.4 |
| 20260504213249 | 16 | 180 | 0.0 | 1.6 | 0.03 | 0.23 | 0.23 | 82 | 1018.3 |
| 20260504212750 | 16 | 225 | 3.2 | 4.8 | 0.03 | 0.23 | 0.23 | 84 | 1018.1 |
| 20260504212252 | 16 | 225 | 1.6 | 3.2 | 0.03 | 0.23 | 0.23 | 87 | 1018.1 |
| 20260504211753 | 16 | 225 | 0.0 | 1.6 | 0.00 | 0.23 | 0.23 | 90 | 1018.0 |
| 20260504211253 | 16 | 225 | 6.4 | 8.0 | 0.00 | 0.23 | 0.20 | 94 | 1017.9 |
| 20260504210754 | 16 | 270 | 3.2 | 4.8 | 0.00 | 0.20 | 0.20 | 95 | 1017.8 |
| 20260504210254 | 15 | 270 | 0.0 | 1.6 | 0.00 | 0.20 | 0.20 | 95 | 1017.7 |
| 20260504205755 | 16 | 270 | 0.0 | 1.6 | 0.00 | 0.20 | 0.20 | 95 | 1017.7 |
| 20260504205257 | 16 | 270 | 0.0 | 0.0 | 0.00 | 0.20 | 0.20 | 95 | 1017.6 |
| 20260504204758 | 16 | 270 | 0.0 | 0.0 | 0.00 | 0.20 | 0.20 | 95 | 1017.5 |
| 20260504204259 | 16 | 270 | 0.0 | 0.0 | 0.00 | 0.20 | 0.20 | 95 | 1017.4 |
| 20260504203759 | 16 | 270 | 0.0 | 0.0 | 0.00 | 0.20 | 0.20 | 95 | 1017.5 |
| 20260504203300 | 16 | 270 | 0.0 | 0.0 | 0.00 | 0.20 | 0.20 | 95 | 1017.5 |
| 20260504202802 | 16 | 270 | 0.0 | 0.0 | 0.00 | 0.20 | 0.20 | 95 | 1017.4 |
| 20260504202304 | 16 | 270 | 0.0 | 1.6 | 0.00 | 0.20 | 0.20 | 95 | 1017.2 |
| 20260504201758 | 17 | 270 | 0.0 | 1.6 | 0.00 | 0.20 | 0.20 | 95 | 1017.1 |
| 20260504201258 | 17 | 270 | 0.0 | 1.6 | 0.00 | 0.20 | 0.20 | 94 | 1017.1 |
| 20260504200759 | 17 | 270 | 0.0 | 1.6 | 0.00 | 0.20 | 0.20 | 94 | 1017.0 |
| 20260504200300 | 17 | 270 | 1.6 | 3.2 | 0.00 | 0.20 | 0.20 | 94 | 1017.0 |
| 20260504195801 | 17 | 270 | 0.0 | 3.2 | 0.00 | 0.20 | 0.20 | 94 | 1016.8 |
| 20260504195304 | 17 | 270 | 0.0 | 3.2 | 0.00 | 0.20 | 0.20 | 94 | 1016.8 |
| 20260504194803 | 17 | 270 | 0.0 | 3.2 | 0.00 | 0.20 | 0.20 | 95 | 1016.9 |
| 20260504194304 | 17 | 270 | 0.0 | 1.6 | 0.00 | 0.20 | 0.20 | 95 | 1016.9 |
| 20260504193805 | 17 | 270 | 0.0 | 1.6 | 0.00 | 0.20 | 0.20 | 95 | 1016.8 |
| 20260504193305 | 17 | 270 | 0.0 | 1.6 | 0.00 | 0.20 | 0.20 | 95 | 1016.7 |
| 20260504192806 | 17 | 270 | 0.0 | 1.6 | 0.00 | 0.20 | 0.20 | 95 | 1016.6 |
| 20260504192308 | 17 | 270 | 0.0 | 1.6 | 0.00 | 0.20 | 0.20 | 95 | 1016.5 |
| 20260504191809 | 17 | 270 | 0.0 | 1.6 | 0.00 | 0.20 | 0.20 | 95 | 1016.4 |
| 20260504191310 | 17 | 270 | 0.0 | 1.6 | 0.00 | 0.20 | 0.20 | 95 | 1016.4 |
| 20260504190811 | 17 | 270 | 0.0 | 0.0 | 0.00 | 0.20 | 0.20 | 95 | 1016.3 |
| 20260504190311 | 17 | 270 | 0.0 | 0.0 | 0.00 | 0.20 | 0.20 | 95 | 1016.2 |
| 20260504185813 | 17 | 270 | 0.0 | 0.0 | 0.00 | 0.20 | 0.20 | 95 | 1016.1 |
| 20260504185314 | 17 | 270 | 0.0 | 0.0 | 0.00 | 0.20 | 0.20 | 95 | 1016.2 |
| 20260504184815 | 17 | 270 | 0.0 | 0.0 | 0.00 | 0.20 | 0.20 | 95 | 1016.2 |
| 20260504184315 | 17 | 270 | 0.0 | 0.0 | 0.00 | 0.20 | 0.20 | 95 | 1016.2 |
| 20260504183817 | 17 | 270 | 0.0 | 0.0 | 0.00 | 0.20 | 0.20 | 95 | 1016.2 |
| 20260504183318 | 17 | 270 | 0.0 | 0.0 | 0.00 | 0.20 | 0.20 | 95 | 1016.2 |
| 20260504182819 | 17 | 270 | 0.0 | 0.0 | 0.00 | 0.20 | 0.20 | 95 | 1016.3 |
| 20260504182320 | 17 | 270 | 0.0 | 0.0 | 0.00 | 0.20 | 0.20 | 95 | 1016.3 |
| 20260504181821 | 17 | 270 | 0.0 | 0.0 | 0.00 | 0.20 | 0.20 | 94 | 1016.2 |
| 20260504181321 | 17 | 270 | 0.0 | 1.6 | 0.00 | 0.20 | 0.20 | 95 | 1016.1 |
| 20260504180823 | 17 | 270 | 0.0 | 1.6 | 0.00 | 0.20 | 0.20 | 94 | 1016.1 |
| 20260504180324 | 17 | 270 | 0.0 | 0.0 | 0.00 | 0.20 | 0.20 | 94 | 1016.0 |
| 20260504175825 | 17 | 270 | 0.0 | 0.0 | 0.00 | 0.20 | 0.20 | 94 | 1016.1 |
| 20260504175326 | 17 | 315 | 0.0 | 1.6 | 0.00 | 0.20 | 0.20 | 95 | 1016.2 |
| 20260504174826 | 17 | 315 | 0.0 | 1.6 | 0.00 | 0.20 | 0.20 | 94 | 1016.1 |
| 20260504174328 | 17 | 315 | 0.0 | 1.6 | 0.03 | 0.20 | 0.20 | 95 | 1016.1 |
| 20260504173829 | 17 | 315 | 1.6 | 3.2 | 0.03 | 0.20 | 0.20 | 94 | 1015.8 |
| 20260504173330 | 17 | 315 | 1.6 | 3.2 | 0.03 | 0.20 | 0.20 | 94 | 1015.8 |
| 20260504172831 | 17 | 315 | 0.0 | 1.6 | 0.03 | 0.20 | 0.20 | 94 | 1015.7 |
| 20260504172332 | 17 | 315 | 0.0 | 0.0 | 0.03 | 0.20 | 0.20 | 94 | 1015.8 |
| 20260504171832 | 17 | 315 | 0.0 | 3.2 | 0.03 | 0.20 | 0.20 | 94 | 1015.9 |
| 20260504171333 | 17 | 315 | 0.0 | 1.6 | 0.03 | 0.20 | 0.20 | 94 | 1016.1 |
| 20260504170835 | 17 | 315 | 0.0 | 0.0 | 0.03 | 0.20 | 0.20 | 94 | 1016.2 |
| 20260504170336 | 17 | 315 | 0.0 | 1.6 | 0.03 | 0.20 | 0.20 | 94 | 1016.2 |
| 20260504160347 | 17 | 315 | 1.6 | 3.2 | 0.05 | 0.18 | 0.18 | 93 | 1016.3 |
| 20260504150856 | 17 | 315 | 1.6 | 3.2 | 0.00 | 0.13 | 0.13 | 92 | 1016.0 |
| 20260504150357 | 17 | 315 | 1.6 | 3.2 | 0.00 | 0.13 | 0.13 | 92 | 1016.1 |
| 20260504140907 | 17 | 315 | 0.0 | 0.0 | 0.00 | 0.13 | 0.13 | 92 | 1015.4 |
| 20260504140409 | 17 | 315 | 0.0 | 1.6 | 0.00 | 0.13 | 0.13 | 92 | 1015.4 |
| 20260504130421 | 17 | 293 | 0.0 | 1.6 | 0.00 | 0.13 | 0.13 | 92 | 1015.8 |
| 20260504110445 | 18 | 225 | 0.0 | 0.0 | 0.13 | 0.13 | 0.13 | 91 | 1016.6 |
| 20260504100453 | 20 | 315 | 0.0 | 3.2 | 0.00 | 0.00 | 0.00 | 76 | 1016.8 |
| 20260504081515 | 21 | 0 | 0.0 | 1.6 | 0.00 | 0.00 | 0.00 | 64 | 1015.7 |
| 20260504081016 | 21 | 0 | 0.0 | 0.0 | 0.00 | 0.00 | 0.00 | 63 | 1015.7 |
| 20260504080517 | 21 | 315 | 0.0 | 0.0 | 0.00 | 0.00 | 0.00 | 62 | 1015.7 |